Time,TemperatureF,DewpointF,PressureIn,WindDirection,WindDirectionDegrees,WindSpeedMPH,WindSpeedGustMPH,Humidity,HourlyPrecipIn,Conditions,Clouds,dailyrainin,SoftwareType,DateUTC
2013-04-22 00:02:00,54.0,34.0,30.20,North,-999,-999.0,-999.0,46,-99.99,,,-99.99,,2013-04-22 05:02:00,
2013-04-22 00:12:00,54.0,34.0,30.21,North,-999,-999.0,-999.0,46,-99.99,,,-99.99,,2013-04-22 05:12:00,
2013-04-22 00:22:00,54.0,34.0,30.21,North,-999,-999.0,-999.0,46,-99.99,,,-99.99,,2013-04-22 05:22:00,
2013-04-22 00:32:00,54.0,33.0,30.21,North,-999,-999.0,-999.0,46,-99.99,,,-99.99,,2013-04-22 05:32:00,
2013-04-22 00:42:00,53.0,34.0,30.21,North,-999,-999.0,-999.0,47,-99.99,,,-99.99,,2013-04-22 05:42:00,
2013-04-22 00:52:00,53.0,34.0,30.21,North,-999,-999.0,-999.0,47,-99.99,,,-99.99,,2013-04-22 05:52:00,
2013-04-22 01:02:00,53.0,34.0,30.21,North,-999,-999.0,-999.0,49,-99.99,,,-99.99,,2013-04-22 06:02:00,
2013-04-22 01:12:00,53.0,34.0,30.21,North,-999,-999.0,-999.0,50,-99.99,,,-99.99,,2013-04-22 06:12:00,
2013-04-22 01:21:00,53.0,34.0,30.21,North,-999,-999.0,-999.0,50,-99.99,,,-99.99,,2013-04-22 06:21:00,
2013-04-22 01:32:00,52.0,35.0,30.21,North,-999,-999.0,-999.0,52,-99.99,,,-99.99,,2013-04-22 06:32:00,
2013-04-22 01:42:00,52.0,35.0,30.21,North,-999,-999.0,-999.0,53,-99.99,,,-99.99,,2013-04-22 06:42:00,
2013-04-22 01:52:00,52.0,35.0,30.21,North,-999,-999.0,-999.0,53,-99.99,,,-99.99,,2013-04-22 06:52:00,
2013-04-22 02:01:00,51.0,35.0,30.20,North,-999,-999.0,-999.0,54,-99.99,,,-99.99,,2013-04-22 07:01:00,
2013-04-22 02:12:00,51.0,35.0,30.20,North,-999,-999.0,-999.0,54,-99.99,,,-99.99,,2013-04-22 07:12:00,
2013-04-22 02:21:00,51.0,35.0,30.20,North,-999,-999.0,-999.0,54,-99.99,,,-99.99,,2013-04-22 07:21:00,
2013-04-22 02:32:00,51.0,36.0,30.19,North,-999,-999.0,-999.0,55,-99.99,,,-99.99,,2013-04-22 07:32:00,
2013-04-22 02:42:00,51.0,36.0,30.19,North,-999,-999.0,-999.0,56,-99.99,,,-99.99,,2013-04-22 07:42:00,
2013-04-22 02:52:00,51.0,36.0,30.19,North,-999,-999.0,-999.0,56,-99.99,,,-99.99,,2013-04-22 07:52:00,
2013-04-22 03:02:00,50.0,36.0,30.18,North,-999,-999.0,-999.0,57,-99.99,,,-99.99,,2013-04-22 08:02:00,
2013-04-22 03:11:00,50.0,36.0,30.18,North,-999,-999.0,-999.0,57,-99.99,,,-99.99,,2013-04-22 08:11:00,
2013-04-22 03:22:00,50.0,36.0,30.18,North,-999,-999.0,-999.0,57,-99.99,,,-99.99,,2013-04-22 08:22:00,
2013-04-22 03:32:00,50.0,36.0,30.17,North,-999,-999.0,-999.0,58,-99.99,,,-99.99,,2013-04-22 08:32:00,
2013-04-22 03:42:00,50.0,36.0,30.17,North,-999,-999.0,-999.0,58,-99.99,,,-99.99,,2013-04-22 08:42:00,
2013-04-22 03:52:00,50.0,36.0,30.17,North,-999,-999.0,-999.0,58,-99.99,,,-99.99,,2013-04-22 08:52:00,
2013-04-22 04:01:00,50.0,36.0,30.16,North,-999,-999.0,-999.0,57,-99.99,,,-99.99,,2013-04-22 09:01:00,
2013-04-22 04:11:00,50.0,36.0,30.16,North,-999,-999.0,-999.0,57,-99.99,,,-99.99,,2013-04-22 09:11:00,
2013-04-22 04:21:00,50.0,36.0,30.16,North,-999,-999.0,-999.0,57,-99.99,,,-99.99,,2013-04-22 09:21:00,
2013-04-22 04:33:00,50.0,35.0,30.15,North,-999,-999.0,-999.0,55,-99.99,,,-99.99,,2013-04-22 09:33:00,
2013-04-22 04:42:00,50.0,35.0,30.15,North,-999,-999.0,-999.0,55,-99.99,,,-99.99,,2013-04-22 09:42:00,
2013-04-22 04:52:00,50.0,35.0,30.15,North,-999,-999.0,-999.0,55,-99.99,,,-99.99,,2013-04-22 09:52:00,
2013-04-22 05:03:00,50.0,35.0,30.15,North,-999,-999.0,-999.0,56,-99.99,,,-99.99,,2013-04-22 10:03:00,
2013-04-22 05:12:00,50.0,35.0,30.15,North,-999,-999.0,-999.0,56,-99.99,,,-99.99,,2013-04-22 10:12:00,
2013-04-22 05:22:00,50.0,35.0,30.15,North,-999,-999.0,-999.0,56,-99.99,,,-99.99,,2013-04-22 10:22:00,
2013-04-22 05:30:00,50.0,33.0,30.14,North,-999,-999.0,-999.0,51,-99.99,,,-99.99,,2013-04-22 10:30:00,
2013-04-22 05:32:00,50.0,35.0,30.14,North,-999,-999.0,-999.0,56,-99.99,,,-99.99,,2013-04-22 10:32:00,
2013-04-22 05:42:00,50.0,34.0,30.14,North,-999,-999.0,-999.0,54,-99.99,,,-99.99,,2013-04-22 10:42:00,
2013-04-22 05:52:00,50.0,34.0,30.14,North,-999,-999.0,-999.0,54,-99.99,,,-99.99,,2013-04-22 10:52:00,
2013-04-22 06:02:00,50.0,33.0,30.14,North,-999,-999.0,-999.0,52,-99.99,,,-99.99,,2013-04-22 11:02:00,
2013-04-22 06:12:00,50.0,33.0,30.14,North,-999,-999.0,-999.0,51,-99.99,,,-99.99,,2013-04-22 11:12:00,
2013-04-22 06:22:00,50.0,33.0,30.14,North,-999,-999.0,-999.0,51,-99.99,,,-99.99,,2013-04-22 11:22:00,
2013-04-22 06:42:00,49.0,32.0,30.15,North,-999,-999.0,-999.0,51,-99.99,,,-99.99,,2013-04-22 11:42:00,
2013-04-22 06:52:00,49.0,32.0,30.15,North,-999,-999.0,-999.0,51,-99.99,,,-99.99,,2013-04-22 11:52:00,
2013-04-22 07:02:00,49.0,32.0,30.14,North,-999,-999.0,-999.0,51,-99.99,,,-99.99,,2013-04-22 12:02:00,
2013-04-22 07:12:00,49.0,31.0,30.14,North,-999,-999.0,-999.0,50,-99.99,,,-99.99,,2013-04-22 12:12:00,
2013-04-22 07:21:00,49.0,31.0,30.14,North,-999,-999.0,-999.0,50,-99.99,,,-99.99,,2013-04-22 12:21:00,
2013-04-22 07:32:00,49.0,32.0,30.15,North,-999,-999.0,-999.0,51,-99.99,,,-99.99,,2013-04-22 12:32:00,
2013-04-22 07:42:00,49.0,31.0,30.15,North,-999,-999.0,-999.0,49,-99.99,,,-99.99,,2013-04-22 12:42:00,
2013-04-22 07:52:00,49.0,31.0,30.15,North,-999,-999.0,-999.0,49,-99.99,,,-99.99,,2013-04-22 12:52:00,
2013-04-22 08:01:00,50.0,31.0,30.16,North,-999,-999.0,-999.0,48,-99.99,,,-99.99,,2013-04-22 13:01:00,
2013-04-22 08:11:00,51.0,31.0,30.16,North,-999,-999.0,-999.0,46,-99.99,,,-99.99,,2013-04-22 13:11:00,
2013-04-22 08:22:00,51.0,31.0,30.16,North,-999,-999.0,-999.0,46,-99.99,,,-99.99,,2013-04-22 13:22:00,
2013-04-22 08:32:00,54.0,30.0,30.16,North,-999,-999.0,-999.0,41,-99.99,,,-99.99,,2013-04-22 13:32:00,
2013-04-22 08:42:00,55.0,32.0,30.16,North,-999,-999.0,-999.0,42,-99.99,,,-99.99,,2013-04-22 13:42:00,
2013-04-22 08:52:00,55.0,32.0,30.16,North,-999,-999.0,-999.0,42,-99.99,,,-99.99,,2013-04-22 13:52:00,
2013-04-22 09:02:00,56.0,31.0,30.14,North,-999,-999.0,-999.0,38,-99.99,,,-99.99,,2013-04-22 14:02:00,
2013-04-22 09:11:00,55.0,31.0,30.15,North,-999,-999.0,-999.0,40,-99.99,,,-99.99,,2013-04-22 14:11:00,
2013-04-22 09:21:00,55.0,31.0,30.15,North,-999,-999.0,-999.0,40,-99.99,,,-99.99,,2013-04-22 14:21:00,
2013-04-22 09:33:00,57.0,33.0,30.15,North,-999,-999.0,-999.0,40,-99.99,,,-99.99,,2013-04-22 14:33:00,
2013-04-22 09:42:00,58.0,34.0,30.14,North,-999,-999.0,-999.0,39,-99.99,,,-99.99,,2013-04-22 14:42:00,
2013-04-22 09:52:00,58.0,34.0,30.14,North,-999,-999.0,-999.0,39,-99.99,,,-99.99,,2013-04-22 14:52:00,
2013-04-22 10:02:00,60.0,34.0,30.15,North,-999,-999.0,-999.0,38,-99.99,,,-99.99,,2013-04-22 15:02:00,
2013-04-22 10:12:00,60.0,35.0,30.15,North,-999,-999.0,-999.0,39,-99.99,,,-99.99,,2013-04-22 15:12:00,
2013-04-22 10:22:00,60.0,35.0,30.15,North,-999,-999.0,-999.0,39,-99.99,,,-99.99,,2013-04-22 15:22:00,
2013-04-22 10:33:00,61.0,35.0,30.14,North,-999,-999.0,-999.0,37,-99.99,,,-99.99,,2013-04-22 15:33:00,
2013-04-22 10:43:00,62.0,34.0,30.14,North,-999,-999.0,-999.0,35,-99.99,,,-99.99,,2013-04-22 15:43:00,
2013-04-22 10:53:00,62.0,34.0,30.14,North,-999,-999.0,-999.0,35,-99.99,,,-99.99,,2013-04-22 15:53:00,
2013-04-22 11:00:00,65.0,35.0,30.13,North,-999,-999.0,-999.0,33,-99.99,,,-99.99,,2013-04-22 16:00:00,
2013-04-22 11:03:00,63.0,33.0,30.13,North,-999,-999.0,-999.0,32,-99.99,,,-99.99,,2013-04-22 16:03:00,
2013-04-22 11:12:00,63.0,34.0,30.13,North,-999,-999.0,-999.0,33,-99.99,,,-99.99,,2013-04-22 16:12:00,
2013-04-22 11:23:00,63.0,34.0,30.13,North,-999,-999.0,-999.0,33,-99.99,,,-99.99,,2013-04-22 16:23:00,
2013-04-22 11:33:00,64.0,34.0,30.12,North,-999,-999.0,-999.0,33,-99.99,,,-99.99,,2013-04-22 16:33:00,
2013-04-22 11:42:00,65.0,35.0,30.13,North,-999,-999.0,-999.0,33,-99.99,,,-99.99,,2013-04-22 16:42:00,
2013-04-22 11:52:00,65.0,35.0,30.13,North,-999,-999.0,-999.0,33,-99.99,,,-99.99,,2013-04-22 16:52:00,
2013-04-22 12:12:00,66.0,35.0,30.11,North,-999,-999.0,-999.0,31,-99.99,,,-99.99,,2013-04-22 17:12:00,
2013-04-22 12:22:00,66.0,35.0,30.11,North,-999,-999.0,-999.0,31,-99.99,,,-99.99,,2013-04-22 17:22:00,
2013-04-22 12:32:00,67.0,35.0,30.11,North,-999,-999.0,-999.0,31,-99.99,,,-99.99,,2013-04-22 17:32:00,
2013-04-22 12:42:00,67.0,34.0,30.11,North,-999,-999.0,-999.0,30,-99.99,,,-99.99,,2013-04-22 17:42:00,
2013-04-22 12:52:00,67.0,34.0,30.11,North,-999,-999.0,-999.0,30,-99.99,,,-99.99,,2013-04-22 17:52:00,
2013-04-22 13:01:00,67.0,35.0,30.09,North,-999,-999.0,-999.0,30,-99.99,,,-99.99,,2013-04-22 18:01:00,
2013-04-22 13:12:00,68.0,32.0,30.09,North,-999,-999.0,-999.0,27,-99.99,,,-99.99,,2013-04-22 18:12:00,
2013-04-22 13:21:00,68.0,32.0,30.09,North,-999,-999.0,-999.0,27,-99.99,,,-99.99,,2013-04-22 18:21:00,
2013-04-22 13:32:00,68.0,36.0,30.08,North,-999,-999.0,-999.0,31,-99.99,,,-99.99,,2013-04-22 18:32:00,
2013-04-22 13:42:00,69.0,33.0,30.07,North,-999,-999.0,-999.0,27,-99.99,,,-99.99,,2013-04-22 18:42:00,
2013-04-22 13:52:00,69.0,33.0,30.07,North,-999,-999.0,-999.0,27,-99.99,,,-99.99,,2013-04-22 18:52:00,
2013-04-22 14:01:00,69.0,35.0,30.06,North,-999,-999.0,-999.0,29,-99.99,,,-99.99,,2013-04-22 19:01:00,
2013-04-22 14:12:00,68.0,34.0,30.05,North,-999,-999.0,-999.0,28,-99.99,,,-99.99,,2013-04-22 19:12:00,
2013-04-22 14:22:00,68.0,34.0,30.05,North,-999,-999.0,-999.0,28,-99.99,,,-99.99,,2013-04-22 19:22:00,
2013-04-22 14:32:00,68.0,37.0,30.05,North,-999,-999.0,-999.0,31,-99.99,,,-99.99,,2013-04-22 19:32:00,
2013-04-22 14:42:00,69.0,35.0,30.04,North,-999,-999.0,-999.0,28,-99.99,,,-99.99,,2013-04-22 19:42:00,
2013-04-22 14:52:00,69.0,35.0,30.04,North,-999,-999.0,-999.0,28,-99.99,,,-99.99,,2013-04-22 19:52:00,
2013-04-22 15:00:00,69.0,31.0,30.01,North,-999,-999.0,-999.0,25,-99.99,,,-99.99,,2013-04-22 20:00:00,
2013-04-22 15:02:00,68.0,36.0,30.02,North,-999,-999.0,-999.0,30,-99.99,,,-99.99,,2013-04-22 20:02:00,
2013-04-22 15:11:00,69.0,33.0,30.02,North,-999,-999.0,-999.0,26,-99.99,,,-99.99,,2013-04-22 20:11:00,
2013-04-22 15:22:00,69.0,33.0,30.02,North,-999,-999.0,-999.0,26,-99.99,,,-99.99,,2013-04-22 20:22:00,
2013-04-22 15:32:00,69.0,32.0,30.01,North,-999,-999.0,-999.0,25,-99.99,,,-99.99,,2013-04-22 20:32:00,
2013-04-22 15:42:00,69.0,31.0,30.01,North,-999,-999.0,-999.0,25,-99.99,,,-99.99,,2013-04-22 20:42:00,
2013-04-22 15:52:00,69.0,31.0,30.01,North,-999,-999.0,-999.0,25,-99.99,,,-99.99,,2013-04-22 20:52:00,
2013-04-22 16:12:00,67.0,33.0,29.99,North,-999,-999.0,-999.0,28,-99.99,,,-99.99,,2013-04-22 21:12:00,
2013-04-22 16:21:00,67.0,33.0,29.99,North,-999,-999.0,-999.0,28,-99.99,,,-99.99,,2013-04-22 21:21:00,
2013-04-22 16:32:00,67.0,32.0,29.96,North,-999,-999.0,-999.0,27,-99.99,,,-99.99,,2013-04-22 21:32:00,
2013-04-22 16:43:00,67.0,32.0,29.96,North,-999,-999.0,-999.0,27,-99.99,,,-99.99,,2013-04-22 21:43:00,
2013-04-22 16:53:00,67.0,32.0,29.96,North,-999,-999.0,-999.0,27,-99.99,,,-99.99,,2013-04-22 21:53:00,
2013-04-22 17:03:00,67.0,33.0,29.96,North,-999,-999.0,-999.0,28,-99.99,,,-99.99,,2013-04-22 22:03:00,
2013-04-22 17:12:00,67.0,34.0,29.96,North,-999,-999.0,-999.0,29,-99.99,,,-99.99,,2013-04-22 22:12:00,
2013-04-22 17:22:00,67.0,34.0,29.96,North,-999,-999.0,-999.0,29,-99.99,,,-99.99,,2013-04-22 22:22:00,
2013-04-22 17:33:00,66.0,34.0,29.96,North,-999,-999.0,-999.0,30,-99.99,,,-99.99,,2013-04-22 22:33:00,
2013-04-22 17:42:00,67.0,35.0,29.95,North,-999,-999.0,-999.0,31,-99.99,,,-99.99,,2013-04-22 22:42:00,
2013-04-22 17:52:00,67.0,35.0,29.95,North,-999,-999.0,-999.0,31,-99.99,,,-99.99,,2013-04-22 22:52:00,
2013-04-22 18:02:00,67.0,36.0,29.97,North,-999,-999.0,-999.0,32,-99.99,,,-99.99,,2013-04-22 23:02:00,
2013-04-22 18:11:00,66.0,36.0,29.96,North,-999,-999.0,-999.0,33,-99.99,,,-99.99,,2013-04-22 23:11:00,
2013-04-22 18:20:00,63.0,40.0,29.93,North,-999,-999.0,-999.0,42,-99.99,,,-99.99,,2013-04-22 23:20:00,
2013-04-22 18:21:00,66.0,36.0,29.96,North,-999,-999.0,-999.0,33,-99.99,,,-99.99,,2013-04-22 23:21:00,
2013-04-22 18:33:00,65.0,36.0,29.97,North,-999,-999.0,-999.0,34,-99.99,,,-99.99,,2013-04-22 23:33:00,
2013-04-22 18:42:00,65.0,36.0,29.97,North,-999,-999.0,-999.0,34,-99.99,,,-99.99,,2013-04-22 23:42:00,
2013-04-22 18:52:00,65.0,36.0,29.97,North,-999,-999.0,-999.0,34,-99.99,,,-99.99,,2013-04-22 23:52:00,
2013-04-22 19:02:00,63.0,40.0,29.93,North,-999,-999.0,-999.0,42,-99.99,,,-99.99,,2013-04-23 00:02:00,
2013-04-22 19:12:00,63.0,40.0,29.93,North,-999,-999.0,-999.0,42,-99.99,,,-99.99,,2013-04-23 00:12:00,
2013-04-22 19:32:00,62.0,40.0,29.94,North,-999,-999.0,-999.0,44,-99.99,,,-99.99,,2013-04-23 00:32:00,
2013-04-22 19:42:00,62.0,40.0,29.94,North,-999,-999.0,-999.0,45,-99.99,,,-99.99,,2013-04-23 00:42:00,
2013-04-22 19:51:00,62.0,40.0,29.94,North,-999,-999.0,-999.0,45,-99.99,,,-99.99,,2013-04-23 00:51:00,
2013-04-22 20:01:00,62.0,41.0,29.94,North,-999,-999.0,-999.0,46,-99.99,,,-99.99,,2013-04-23 01:01:00,
2013-04-22 20:11:00,61.0,40.0,29.95,North,-999,-999.0,-999.0,46,-99.99,,,-99.99,,2013-04-23 01:11:00,
2013-04-22 20:21:00,61.0,40.0,29.95,North,-999,-999.0,-999.0,46,-99.99,,,-99.99,,2013-04-23 01:21:00,
2013-04-22 20:32:00,61.0,40.0,29.94,North,-999,-999.0,-999.0,46,-99.99,,,-99.99,,2013-04-23 01:32:00,
2013-04-22 20:42:00,61.0,41.0,29.94,North,-999,-999.0,-999.0,47,-99.99,,,-99.99,,2013-04-23 01:42:00,
2013-04-22 20:52:00,61.0,41.0,29.94,North,-999,-999.0,-999.0,47,-99.99,,,-99.99,,2013-04-23 01:52:00,
2013-04-22 21:02:00,60.0,40.0,29.96,North,-999,-999.0,-999.0,46,-99.99,,,-99.99,,2013-04-23 02:02:00,
2013-04-22 21:12:00,60.0,40.0,29.97,North,-999,-999.0,-999.0,47,-99.99,,,-99.99,,2013-04-23 02:12:00,
2013-04-22 21:21:00,60.0,40.0,29.97,North,-999,-999.0,-999.0,47,-99.99,,,-99.99,,2013-04-23 02:21:00,
2013-04-22 21:32:00,60.0,39.0,29.97,North,-999,-999.0,-999.0,46,-99.99,,,-99.99,,2013-04-23 02:32:00,
2013-04-22 21:42:00,60.0,40.0,29.97,North,-999,-999.0,-999.0,47,-99.99,,,-99.99,,2013-04-23 02:42:00,
2013-04-22 21:52:00,60.0,40.0,29.97,North,-999,-999.0,-999.0,47,-99.99,,,-99.99,,2013-04-23 02:52:00,
2013-04-22 22:01:00,59.0,39.0,29.98,North,-999,-999.0,-999.0,47,-99.99,,,-99.99,,2013-04-23 03:01:00,
2013-04-22 22:11:00,59.0,39.0,29.97,North,-999,-999.0,-999.0,47,-99.99,,,-99.99,,2013-04-23 03:11:00,
2013-04-22 22:21:00,59.0,39.0,29.97,North,-999,-999.0,-999.0,47,-99.99,,,-99.99,,2013-04-23 03:21:00,
2013-04-22 22:33:00,59.0,39.0,29.97,North,-999,-999.0,-999.0,46,-99.99,,,-99.99,,2013-04-23 03:33:00,
2013-04-22 22:43:00,59.0,39.0,29.97,North,-999,-999.0,-999.0,47,-99.99,,,-99.99,,2013-04-23 03:43:00,
2013-04-22 22:52:00,59.0,39.0,29.97,North,-999,-999.0,-999.0,47,-99.99,,,-99.99,,2013-04-23 03:52:00,
2013-04-22 23:03:00,59.0,39.0,29.98,North,-999,-999.0,-999.0,48,-99.99,,,-99.99,,2013-04-23 04:03:00,
2013-04-22 23:12:00,59.0,39.0,29.97,North,-999,-999.0,-999.0,48,-99.99,,,-99.99,,2013-04-23 04:12:00,
2013-04-22 23:23:00,59.0,39.0,29.97,North,-999,-999.0,-999.0,48,-99.99,,,-99.99,,2013-04-23 04:23:00,
2013-04-22 23:33:00,59.0,40.0,29.97,North,-999,-999.0,-999.0,49,-99.99,,,-99.99,,2013-04-23 04:33:00,
2013-04-22 23:43:00,58.0,39.0,29.97,North,-999,-999.0,-999.0,49,-99.99,,,-99.99,,2013-04-23 04:43:00,
2013-04-22 23:53:00,58.0,39.0,29.97,North,-999,-999.0,-999.0,49,-99.99,,,-99.99,,2013-04-23 04:53:00,